Regional Weather Roundup
Issued by NWS

Home | Current Version | Previous Version | Text Only | Print | Product List | Glossary On
Versions: 1 2 3 4 5 6 7 8 9 10 11 12 13 14 15 16 17 18 19 20 21 22 23 24 25 26 27 28 29 30 31 32 33 34 35 36 37 38 39 40 41 42 43 44 45 46 47 48 49 50
235
ASUS45 KABQ 032110
RWRNM
NEW MEXICO REGIONAL WEATHER ROUNDUP
NATIONAL WEATHER SERVICE ALBUQUERQUE NM
200 PM MST SAT DEC 03 2016

NOTE: "FAIR" MEANS FEW OR NO CLOUDS BELOW 12,000 FEET AGL WITH NO
       SIGNIFICANT WEATHER OR OBSTRUCTIONS TO VISION.

      THIS PRODUCT IS RELEASED AS TWO VERSIONS.  ONE VERSION NEAR
      THE TOP OF THE HOUR CONTAINING PRELIMINARY DATA FROM ALBUQUERQUE
      AND OTHER STATIONS.  A FINAL VERSION WITH ADDITIONAL DATA IS
      ISSUED ABOUT 10 MINUTES AFTER THE HOUR.

NMZ501-503-504-510>518-032200-
NORTHWEST PLATEAU/NORTHCENTRAL MOUNTAINS

CITY           SKY/WX    TMP DP  RH WIND       PRES   REMARKS
FARMINGTON     FAIR      39  24  55 SW10      30.06F WCI  32
LOS ALAMOS     FAIR      40  26  57 E6        29.99F
SANTA FE       FAIR      46  22  38 NW12      29.96F
TAOS           FAIR      36  19  51 NW7       30.01F WCI  30
ANGEL FIRE     FAIR      35  17  47 W10G17    29.97F WCI  27

$$
NMZ402-403-502-505>509-032200-
WESTCENTRAL MOUNTAINS/SOUTHWEST MOUNTAINS

CITY           SKY/WX    TMP DP  RH WIND       PRES   REMARKS
GALLUP         FAIR      40  26  57 E7        30.05F
GRANTS         FAIR      41  27  57 NW17G23   30.05F

$$
NMZ407-409-411-412-032200-
SOUTHERN DESERTS

CITY           SKY/WX    TMP DP  RH WIND       PRES   REMARKS
DEMING         PTSUNNY   46  37  71 E13       29.95F
LAS CRUCES     CLOUDY    47  35  63 N7        29.95S
HOLLOMAN AFB   CLOUDY    45  38  77 SE7       29.97F
T OR C         CLOUDY    47  29  49 NE12      29.95F

$$
NMZ519>523-032200-
CENTRAL VALLEYS/CENTRAL HIGHLANDS

CITY           SKY/WX    TMP DP  RH WIND       PRES   REMARKS
ALBUQUERQUE    FAIR      46  27  47 NW3       29.99F
DOUBLE EAGLE   MOSUNNY   46  28  49 VRB6      30.00F
MORIARTY ARPT  FAIR      45  27  50 W8        29.98F
CLINES CORNERS PTSUNNY   41  26  55 NW10      29.97F
BELEN          PTSUNNY   45  30  57 NW7       30.01F
SOCORRO        FAIR      46  29  51 N12G20    29.99F

$$
NMZ524>526-539-540-032200-
SOUTHCENTRAL MOUNTAINS

CITY           SKY/WX    TMP DP  RH WIND       PRES   REMARKS
RUIDOSO        PTSUNNY   32  30  93 SE3       30.00S

$$
NMZ527>531-032200-
NORTHEAST HIGHLANDS/NORTHEAST PLAINS

CITY           SKY/WX    TMP DP  RH WIND       PRES   REMARKS
LAS VEGAS      FAIR      44  26  49 S18       29.92F
RATON          FAIR      35  24  64 SW7       29.93F WCI  29
CLAYTON        FAIR      41  36  82 S16       29.94F

$$
NMZ532>537-032200-
EASTCENTRAL PLAINS

CITY           SKY/WX    TMP DP  RH WIND       PRES   REMARKS
TUCUMCARI      CLOUDY    40  35  83 SW6       29.98F
CANNON AFB     DRIZZLE   37  37 100 CALM      29.98F FOG
CLOVIS AIRPORT CLOUDY    37  34  87 N3        29.99F

$$
NMZ028-029-538-032200-
SOUTHEAST PLAINS

CITY           SKY/WX    TMP DP  RH WIND       PRES   REMARKS
ROSWELL        CLOUDY    40  34  79 N6        30.01F
ARTESIA        RAIN      37  37 100 N8        30.03F WCI  31
CARLSBAD       LGT RAIN  37  37 100 NW14      30.02F WCI  28
HOBBS          CLOUDY    39  39 100 NE10      29.99F WCI  32


$$




USA.gov is the U.S. government's official web portal to all federal, state and local government web resources and services.